Previsão horária em Cesano Maderno

Hoje, 31 Julho, Sábado

Tempo Temperatura Precipitação Vento Pressão Humidade
00:00 +22°C° 0.2 mm 1 m/s 739 mmHg 85%
01:00 +22°C° 0.2 mm 1 m/s 739 mmHg 88%
02:00 +22°C° 0.2 mm 1 m/s 739 mmHg 88%
03:00 +21°C° 0.2 mm 1 m/s 739 mmHg 88%
04:00 +21°C° 0.2 mm 1 m/s 739 mmHg 89%
05:00 +22°C° 0.1 mm 1 m/s 739 mmHg 87%
06:00 +22°C° 0.1 mm 1 m/s 739 mmHg 86%
07:00 +23°C° 0.1 mm 1 m/s 739 mmHg 85%
08:00 +24°C° 0.1 mm 1 m/s 739 mmHg 79%
09:00 +26°C° 0.1 mm 1 m/s 739 mmHg 74%
10:00 +27°C° 0.1 mm 1 m/s 739 mmHg 69%
11:00 +28°C° 0.3 mm 1 m/s 739 mmHg 67%
12:00 +28°C° 0.3 mm 1 m/s 739 mmHg 65%
13:00 +29°C° 0.3 mm 1 m/s 739 mmHg 64%
14:00 +30°C° 0.1 mm 1 m/s 738 mmHg 60%
15:00 +30°C° 0.1 mm 1 m/s 738 mmHg 57%
16:00 +31°C° 0.1 mm 1 m/s 738 mmHg 54%
17:00 +30°C° 0.4 mm 1 m/s 737 mmHg 60%
18:00 +28°C° 0.4 mm 1 m/s 736 mmHg 65%
19:00 +27°C° 0.4 mm 1 m/s 736 mmHg 71%
20:00 +25°C° 2.8 mm 2 m/s 736 mmHg 78%
21:00 +24°C° 2.8 mm 2 m/s 737 mmHg 84%
22:00 +21°C° 2.8 mm 3 m/s 737 mmHg 91%
23:00 +20°C° 1.9 mm 2 m/s 737 mmHg 92%

Amanhã, 1 Agosto, Domingo

Tempo Temperatura Precipitação Vento Pressão Humidade
00:00 +20°C° 1.9 mm 2 m/s 737 mmHg 94%
01:00 +19°C° 1.9 mm 2 m/s 737 mmHg 95%
02:00 +20°C° 2.4 mm 1 m/s 737 mmHg 95%
03:00 +20°C° 2.4 mm 1 m/s 737 mmHg 96%
04:00 +20°C° 2.4 mm 1 m/s 737 mmHg 96%
05:00 +20°C° 1.2 mm 1 m/s 737 mmHg 96%
06:00 +20°C° 1.2 mm 1 m/s 737 mmHg 95%
07:00 +20°C° 1.2 mm 1 m/s 737 mmHg 95%
08:00 +21°C° 2.3 mm 1 m/s 737 mmHg 94%
09:00 +21°C° 2.3 mm 1 m/s 737 mmHg 93%
10:00 +22°C° 2.3 mm 1 m/s 737 mmHg 91%
11:00 +23°C° 2.1 mm 2 m/s 737 mmHg 87%
12:00 +24°C° 2.1 mm 2 m/s 737 mmHg 83%
13:00 +25°C° 2.1 mm 2 m/s 737 mmHg 79%
14:00 +25°C° 1.2 mm 2 m/s 737 mmHg 77%
15:00 +25°C° 1.2 mm 2 m/s 737 mmHg 74%
16:00 +25°C° 1.2 mm 2 m/s 737 mmHg 71%
17:00 +24°C° 0.7 mm 2 m/s 737 mmHg 76%
18:00 +21°C° 0.7 mm 2 m/s 737 mmHg 81%
19:00 +20°C° 0.7 mm 2 m/s 737 mmHg 87%
20:00 +19°C° 0.7 mm 2 m/s 737 mmHg 88%
21:00 +18°C° 0.7 mm 2 m/s 738 mmHg 89%
22:00 +17°C° 0.7 mm 2 m/s 738 mmHg 90%
23:00 +17°C° 0 mm 2 m/s 739 mmHg 89%

Depois de amanhã, 2 Agosto, Segunda-feira

Tempo Temperatura Precipitação Vento Pressão Humidade
00:00 +16°C° 0 mm 2 m/s 739 mmHg 88%
01:00 +16°C° 0 mm 2 m/s 739 mmHg 87%
02:00 +16°C° 0 mm 2 m/s 739 mmHg 86%
03:00 +16°C° 0 mm 1 m/s 739 mmHg 85%
04:00 +15°C° 0 mm 1 m/s 739 mmHg 84%
05:00 +16°C° 0 mm 1 m/s 740 mmHg 82%
06:00 +18°C° 0 mm 1 m/s 740 mmHg 80%
07:00 +19°C° 0 mm 1 m/s 741 mmHg 78%
08:00 +20°C° 0 mm 1 m/s 741 mmHg 70%
09:00 +22°C° 0 mm 1 m/s 741 mmHg 63%
10:00 +22°C° 0 mm 0 m/s 742 mmHg 55%
11:00 +25°C° 0 mm 1 m/s 742 mmHg 53%
12:00 +26°C° 0 mm 1 m/s 741 mmHg 50%
13:00 +27°C° 0 mm 1 m/s 741 mmHg 48%
14:00 +27°C° 0 mm 1 m/s 741 mmHg 48%
15:00 +27°C° 0 mm 1 m/s 741 mmHg 48%
16:00 +27°C° 0 mm 1 m/s 741 mmHg 48%
17:00 +26°C° 0 mm 1 m/s 741 mmHg 55%
18:00 +25°C° 0 mm 1 m/s 741 mmHg 62%
19:00 +22°C° 0 mm 0 m/s 741 mmHg 69%
20:00 +23°C° 0.1 mm 1 m/s 742 mmHg 71%
21:00 +22°C° 0.1 mm 1 m/s 742 mmHg 74%
22:00 +20°C° 0.1 mm 1 m/s 742 mmHg 76%
23:00 +20°C° 0.2 mm 1 m/s 743 mmHg 80%

3 Agosto, Terça-feira

Tempo Temperatura Precipitação Vento Pressão Humidade
00:00 +19°C° 0.2 mm 1 m/s 743 mmHg 83%
01:00 +19°C° 0.2 mm 1 m/s 743 mmHg 87%
02:00 +18°C° 0.1 mm 1 m/s 743 mmHg 87%
03:00 +18°C° 0.1 mm 1 m/s 743 mmHg 88%
04:00 +18°C° 0.1 mm 1 m/s 743 mmHg 88%
05:00 +18°C° 0 mm 1 m/s 743 mmHg 87%
06:00 +19°C° 0 mm 1 m/s 743 mmHg 85%
07:00 +17°C° 0 mm 0 m/s 744 mmHg 84%
08:00 +19°C° 0.1 mm 0 m/s 743 mmHg 80%
09:00 +22°C° 0.1 mm 1 m/s 743 mmHg 75%
10:00 +23°C° 0.1 mm 1 m/s 743 mmHg 71%
11:00 +24°C° 0.5 mm 1 m/s 743 mmHg 70%
12:00 +25°C° 0.5 mm 1 m/s 742 mmHg 69%
13:00 +26°C° 0.5 mm 1 m/s 742 mmHg 68%
14:00 +26°C° 0.4 mm 1 m/s 742 mmHg 67%
15:00 +26°C° 0.4 mm 1 m/s 741 mmHg 66%
16:00 +26°C° 0.4 mm 1 m/s 741 mmHg 65%
17:00 +24°C° 1.8 mm 1 m/s 741 mmHg 73%
18:00 +23°C° 1.8 mm 1 m/s 741 mmHg 81%
19:00 +20°C° 1.8 mm 2 m/s 740 mmHg 89%
20:00 +20°C° 0.6 mm 2 m/s 741 mmHg 90%
21:00 +19°C° 0.6 mm 2 m/s 741 mmHg 91%
22:00 +19°C° 0.6 mm 1 m/s 741 mmHg 92%
23:00 +19°C° 0 mm 1 m/s 741 mmHg 92%

4 Agosto, Quarta-feira

Tempo Temperatura Precipitação Vento Pressão Humidade
00:00 +18°C° 0 mm 1 m/s 741 mmHg 92%
01:00 +18°C° 0 mm 1 m/s 741 mmHg 91%
02:00 +18°C° 0 mm 1 m/s 741 mmHg 91%
03:00 +18°C° 0 mm 1 m/s 741 mmHg 90%
04:00 +18°C° 0 mm 1 m/s 740 mmHg 90%
05:00 +18°C° 0 mm 1 m/s 741 mmHg 88%
06:00 +19°C° 0 mm 1 m/s 741 mmHg 85%
07:00 +19°C° 0 mm 1 m/s 741 mmHg 83%
08:00 +21°C° 0 mm 1 m/s 741 mmHg 75%
09:00 +23°C° 0 mm 1 m/s 741 mmHg 67%
10:00 +25°C° 0 mm 1 m/s 741 mmHg 59%
11:00 +26°C° 0 mm 1 m/s 741 mmHg 56%
12:00 +27°C° 0 mm 1 m/s 741 mmHg 54%
13:00 +27°C° 0 mm 1 m/s 740 mmHg 51%
14:00 +28°C° 0 mm 1 m/s 740 mmHg 50%
15:00 +28°C° 0 mm 1 m/s 740 mmHg 49%
16:00 +26°C° 0 mm 0 m/s 740 mmHg 47%
17:00 +25°C° 0.1 mm 0 m/s 740 mmHg 55%
18:00 +24°C° 0.1 mm 0 m/s 740 mmHg 62%
19:00 +23°C° 0.1 mm 0 m/s 740 mmHg 69%
20:00 +23°C° 0.2 mm 1 m/s 740 mmHg 72%
21:00 +22°C° 0.2 mm 1 m/s 740 mmHg 76%
22:00 +21°C° 0.2 mm 1 m/s 740 mmHg 79%
23:00 +20°C° 0.2 mm 1 m/s 740 mmHg 83%

5 Agosto, Quinta-feira

Tempo Temperatura Precipitação Vento Pressão Humidade
00:00 +19°C° 0.2 mm 1 m/s 740 mmHg 86%
01:00 +18°C° 0.2 mm 1 m/s 740 mmHg 90%
02:00 +18°C° 0 mm 1 m/s 740 mmHg 89%
03:00 +18°C° 0 mm 1 m/s 740 mmHg 89%
04:00 +18°C° 0 mm 1 m/s 739 mmHg 89%
05:00 +18°C° 0 mm 1 m/s 739 mmHg 88%
06:00 +19°C° 0 mm 1 m/s 739 mmHg 86%
07:00 +19°C° 0 mm 1 m/s 740 mmHg 85%
08:00 +21°C° 0 mm 1 m/s 740 mmHg 78%
09:00 +23°C° 0 mm 1 m/s 740 mmHg 72%
10:00 +24°C° 0 mm 1 m/s 740 mmHg 66%
11:00 +25°C° 0.1 mm 1 m/s 739 mmHg 62%
12:00 +26°C° 0.1 mm 1 m/s 739 mmHg 59%
13:00 +27°C° 0.1 mm 1 m/s 739 mmHg 55%
14:00 +27°C° 0 mm 1 m/s 738 mmHg 57%
15:00 +27°C° 0 mm 1 m/s 738 mmHg 59%
16:00 +26°C° 0 mm 1 m/s 738 mmHg 61%
17:00 +26°C° 0.1 mm 1 m/s 738 mmHg 66%
18:00 +25°C° 0.1 mm 1 m/s 738 mmHg 70%
19:00 +24°C° 0.1 mm 1 m/s 737 mmHg 75%
20:00 +23°C° 0.1 mm 1 m/s 738 mmHg 77%
21:00 +22°C° 0.1 mm 1 m/s 738 mmHg 79%
22:00 +21°C° 0.1 mm 1 m/s 738 mmHg 82%
23:00 +20°C° 0 mm 1 m/s 738 mmHg 83%
Mostrar mais

Necessitamos do seu Consentimento

A Meteoprog e os seus Fornecedores de Serviços podem armazenar e aceder a dados pessoais como cookies, identificadores do dispositivo ou outras tecnologias semelhantes existentes no seu dispositivo e processar estes dados para personalizar conteúdos e anúncios, assim como funcionalidades nas redes sociais e análise de tráfego.

  • Armazenar e/ou aceder a informações no seu dispositivo

    Os cookies, identificadores do dispositivo ou outras informações podem ser armazenados ou acedidos no seu dispositivo, para os fins acima indicados.

  • Anúncios e conteúdos personalizados, medição de anúncios e conteúdos, dados sobre o público-alvo e desenvolvimento de produtos

    Os anúncios e os conteúdos podem ser personalizados com base num perfil. Podem ser adicionados dados adicionais para uma maior personalização dos anúncios e dos conteúdos. A eficácia dos anúncios e dos conteúdos pode ser medida. Podem ser obtidas informações sobre o público que visualizou os anúncios e os conteúdos. Estes dados podem ser usados para desenvolver ou melhorar sistemas, softwares ou a experiência do utilizador.

Ao clicar em "Eu concordo”, permitirá o uso de cookies, identificadores do dispositivo e web beacons mencionados ou outras tecnologias semelhantes. As configurações do navegador do seu dispositivo podem ser alteradas.

Para certos fins, podem ser invocados interesses legítimos ao invés de consentimento. Pode ler mais informação sobre este assunto na nossa Política de Privacidade e Cookies.